| time (UTC) | temp F | wind direction | speed MPH | gust MPH | rain 1hr in | rain 24hr in | rain mn in | humidity % | barometer mb |
| 20260507003702 | 82 | 74 | 1.0 | 4.0 | 0.00 | 0.00 | 0.00 | 17 | 1017.6 |
| 20260507003157 | 82 | 270 | 0.0 | 2.0 | 0.00 | 0.00 | 0.00 | 18 | 1017.7 |
| 20260507002654 | 81 | 270 | 4.0 | 4.0 | 0.00 | 0.00 | 0.00 | 19 | 1017.6 |
| 20260507002150 | 81 | 270 | 2.0 | 8.0 | 0.00 | 0.00 | 0.00 | 19 | 1017.6 |
| 20260507001647 | 81 | 255 | 3.0 | 6.0 | 0.00 | 0.00 | 0.00 | 20 | 1017.8 |
| 20260507001144 | 80 | 274 | 2.0 | 5.0 | 0.00 | 0.00 | 0.00 | 21 | 1017.4 |
| 20260507000641 | 80 | 253 | 6.0 | 9.0 | 0.00 | 0.00 | 0.00 | 20 | 1017.5 |
| 20260507000136 | 80 | 281 | 6.0 | 9.0 | 0.00 | 0.00 | 0.00 | 19 | 1017.4 |
| 20260506235634 | 81 | 253 | 6.0 | 10.0 | 0.00 | 0.00 | 0.00 | 20 | 1017.2 |
| 20260506235134 | 81 | 305 | 7.0 | 12.0 | 0.00 | 0.00 | 0.00 | 20 | 1017.6 |
| 20260506234631 | 82 | 248 | 4.0 | 7.0 | 0.00 | 0.00 | 0.00 | 20 | 1017.4 |
| 20260506234128 | 82 | 258 | 3.0 | 9.0 | 0.00 | 0.00 | 0.00 | 20 | 1017.4 |
| 20260506233625 | 82 | 233 | 4.0 | 6.0 | 0.00 | 0.00 | 0.00 | 20 | 1017.5 |
| 20260506233122 | 81 | 300 | 1.0 | 5.0 | 0.00 | 0.00 | 0.00 | 20 | 1017.5 |
| 20260506232618 | 81 | 215 | 3.0 | 7.0 | 0.00 | 0.00 | 0.00 | 21 | 1017.7 |
| 20260506232114 | 81 | 285 | 3.0 | 6.0 | 0.00 | 0.00 | 0.00 | 20 | 1017.7 |
| 20260506231611 | 82 | 258 | 2.0 | 7.0 | 0.00 | 0.00 | 0.00 | 19 | 1017.8 |
| 20260506231109 | 82 | 282 | 2.0 | 6.0 | 0.00 | 0.00 | 0.00 | 20 | 1017.7 |
| 20260506230606 | 81 | 258 | 6.0 | 9.0 | 0.00 | 0.00 | 0.00 | 21 | 1017.8 |
| 20260506230103 | 81 | 307 | 6.0 | 6.0 | 0.00 | 0.00 | 0.00 | 21 | 1017.7 |
| 20260506225559 | 82 | 242 | 6.0 | 6.0 | 0.00 | 0.00 | 0.00 | 21 | 1017.8 |
| 20260506225056 | 81 | 235 | 5.0 | 10.0 | 0.00 | 0.00 | 0.00 | 21 | 1017.8 |
| 20260506224553 | 82 | 259 | 6.0 | 9.0 | 0.00 | 0.00 | 0.00 | 21 | 1018.0 |
| 20260506224049 | 81 | 280 | 4.0 | 9.0 | 0.00 | 0.00 | 0.00 | 21 | 1018.0 |
| 20260506223545 | 81 | 249 | 7.0 | 10.0 | 0.00 | 0.00 | 0.00 | 21 | 1018.0 |
| 20260506223042 | 81 | 213 | 3.0 | 5.0 | 0.00 | 0.00 | 0.00 | 22 | 1018.0 |
| 20260506222539 | 82 | 260 | 2.0 | 6.0 | 0.00 | 0.00 | 0.00 | 21 | 1018.2 |
| 20260506222035 | 82 | 221 | 2.0 | 7.0 | 0.00 | 0.00 | 0.00 | 21 | 1018.1 |
| 20260506221533 | 82 | 250 | 6.0 | 12.0 | 0.00 | 0.00 | 0.00 | 21 | 1018.3 |
| 20260506221031 | 82 | 244 | 7.0 | 13.0 | 0.00 | 0.00 | 0.00 | 21 | 1018.4 |
| 20260506220526 | 82 | 267 | 4.0 | 11.0 | 0.00 | 0.00 | 0.00 | 21 | 1018.5 |
| 20260506220022 | 82 | 246 | 3.0 | 14.0 | 0.00 | 0.00 | 0.00 | 20 | 1018.6 |
| 20260506215519 | 82 | 167 | 3.0 | 10.0 | 0.00 | 0.00 | 0.00 | 21 | 1018.7 |
| 20260506215015 | 82 | 283 | 5.0 | 7.0 | 0.00 | 0.00 | 0.00 | 21 | 1018.6 |
| 20260506214512 | 80 | 248 | 7.0 | 7.0 | 0.00 | 0.00 | 0.00 | 22 | 1018.7 |
| 20260506214009 | 80 | 101 | 2.0 | 8.0 | 0.00 | 0.00 | 0.00 | 22 | 1018.6 |
| 20260506213507 | 79 | 124 | 4.0 | 9.0 | 0.00 | 0.00 | 0.00 | 23 | 1018.8 |
| 20260506213003 | 80 | 78 | 6.0 | 11.0 | 0.00 | 0.00 | 0.00 | 22 | 1018.7 |
| 20260506212459 | 80 | 180 | 5.0 | 11.0 | 0.00 | 0.00 | 0.00 | 22 | 1019.0 |
| 20260506211949 | 80 | 129 | 9.0 | 12.0 | 0.00 | 0.00 | 0.00 | 22 | 1019.0 |
| 20260506211445 | 80 | 168 | 2.0 | 8.0 | 0.00 | 0.00 | 0.00 | 23 | 1019.3 |
| 20260506210943 | 80 | 139 | 6.0 | 9.0 | 0.00 | 0.00 | 0.00 | 22 | 1019.1 |
| 20260506210439 | 80 | 290 | 0.0 | 15.0 | 0.00 | 0.00 | 0.00 | 22 | 1019.1 |
| 20260506205936 | 80 | 105 | 0.0 | 7.0 | 0.00 | 0.00 | 0.00 | 23 | 1019.1 |
| 20260506205432 | 79 | 239 | 3.0 | 6.0 | 0.00 | 0.00 | 0.00 | 22 | 1019.1 |
| 20260506204928 | 78 | 288 | 5.0 | 10.0 | 0.00 | 0.00 | 0.00 | 22 | 1019.2 |
| 20260506204427 | 78 | 180 | 1.0 | 8.0 | 0.00 | 0.00 | 0.00 | 23 | 1019.4 |
| 20260506203924 | 77 | 26 | 3.0 | 9.0 | 0.00 | 0.00 | 0.00 | 24 | 1019.4 |
| 20260506203421 | 77 | 54 | 6.0 | 9.0 | 0.00 | 0.00 | 0.00 | 24 | 1019.5 |
| 20260506202918 | 77 | 26 | 9.0 | 10.0 | 0.00 | 0.00 | 0.00 | 24 | 1019.3 |
| 20260506202415 | 78 | 71 | 5.0 | 10.0 | 0.00 | 0.00 | 0.00 | 23 | 1019.2 |
| 20260506201911 | 78 | 114 | 9.0 | 13.0 | 0.00 | 0.00 | 0.00 | 24 | 1019.1 |
| 20260506201409 | 79 | 71 | 4.0 | 7.0 | 0.00 | 0.00 | 0.00 | 23 | 1019.3 |
| 20260506200905 | 78 | 270 | 1.0 | 2.0 | 0.00 | 0.00 | 0.00 | 23 | 1019.6 |
| 20260506200401 | 79 | 249 | 6.0 | 10.0 | 0.00 | 0.00 | 0.00 | 23 | 1019.4 |
| 20260506195858 | 79 | 165 | 5.0 | 13.0 | 0.00 | 0.00 | 0.00 | 23 | 1019.6 |
| 20260506195355 | 78 | 145 | 3.0 | 7.0 | 0.00 | 0.00 | 0.00 | 24 | 1019.6 |
| 20260506194852 | 78 | 186 | 5.0 | 9.0 | 0.00 | 0.00 | 0.00 | 24 | 1019.6 |
| 20260506194349 | 78 | 225 | 4.0 | 7.0 | 0.00 | 0.00 | 0.00 | 24 | 1019.6 |
| 20260506193846 | 77 | 166 | 2.0 | 10.0 | 0.00 | 0.00 | 0.00 | 25 | 1019.6 |
| 20260506193343 | 76 | 130 | 6.0 | 10.0 | 0.00 | 0.00 | 0.00 | 24 | 1019.8 |
| 20260506192839 | 76 | 184 | 4.0 | 6.0 | 0.00 | 0.00 | 0.00 | 24 | 1019.8 |
| 20260506192336 | 77 | 182 | 4.0 | 10.0 | 0.00 | 0.00 | 0.00 | 25 | 1019.8 |
| 20260506191833 | 76 | 173 | 5.0 | 7.0 | 0.00 | 0.00 | 0.00 | 25 | 1020.2 |
| 20260506191329 | 76 | 233 | 5.0 | 9.0 | 0.00 | 0.00 | 0.00 | 25 | 1020.2 |
| 20260506190826 | 76 | 248 | 2.0 | 6.0 | 0.00 | 0.00 | 0.00 | 25 | 1020.2 |
| 20260506190323 | 75 | 180 | 5.0 | 12.0 | 0.00 | 0.00 | 0.00 | 25 | 1020.1 |
| 20260506185820 | 75 | 158 | 6.0 | 10.0 | 0.00 | 0.00 | 0.00 | 26 | 1020.2 |
| 20260506185317 | 75 | 226 | 6.0 | 10.0 | 0.00 | 0.00 | 0.00 | 25 | 1020.2 |
| 20260506184814 | 75 | 207 | 4.0 | 11.0 | 0.00 | 0.00 | 0.00 | 26 | 1020.4 |
| 20260506184311 | 74 | 227 | 6.0 | 12.0 | 0.00 | 0.00 | 0.00 | 26 | 1020.3 |
| 20260506183808 | 75 | 184 | 5.0 | 11.0 | 0.00 | 0.00 | 0.00 | 25 | 1020.4 |
| 20260506183303 | 75 | 175 | 9.0 | 10.0 | 0.00 | 0.00 | 0.00 | 26 | 1020.5 |
| 20260506182801 | 75 | 251 | 3.0 | 16.0 | 0.00 | 0.00 | 0.00 | 26 | 1020.6 |
| 20260506182257 | 74 | 220 | 3.0 | 9.0 | 0.00 | 0.00 | 0.00 | 26 | 1020.4 |
| 20260506181755 | 73 | 216 | 2.0 | 19.0 | 0.00 | 0.00 | 0.00 | 26 | 1020.6 |
| 20260506181253 | 73 | 244 | 9.0 | 10.0 | 0.00 | 0.00 | 0.00 | 27 | 1020.4 |
| 20260506180750 | 73 | 199 | 6.0 | 10.0 | 0.00 | 0.00 | 0.00 | 26 | 1020.5 |
| 20260506180246 | 73 | 238 | 7.0 | 13.0 | 0.00 | 0.00 | 0.00 | 27 | 1020.5 |
| 20260506175742 | 72 | 188 | 6.0 | 10.0 | 0.00 | 0.00 | 0.00 | 27 | 1020.6 |
| 20260506175239 | 72 | 232 | 6.0 | 13.0 | 0.00 | 0.00 | 0.00 | 27 | 1020.3 |
| 20260506174737 | 72 | 233 | 5.0 | 10.0 | 0.00 | 0.00 | 0.00 | 28 | 1020.5 |
| 20260506174233 | 71 | 163 | 7.0 | 16.0 | 0.00 | 0.00 | 0.00 | 28 | 1020.6 |
| 20260506173732 | 71 | 199 | 4.0 | 9.0 | 0.00 | 0.00 | 0.00 | 28 | 1020.3 |
| 20260506173228 | 71 | 225 | 5.0 | 13.0 | 0.00 | 0.00 | 0.00 | 28 | 1020.6 |
| 20260506172724 | 71 | 203 | 4.0 | 11.0 | 0.00 | 0.00 | 0.00 | 28 | 1020.4 |
| 20260506172220 | 70 | 248 | 10.0 | 12.0 | 0.00 | 0.00 | 0.00 | 29 | 1020.5 |
| 20260506171718 | 71 | 224 | 10.0 | 12.0 | 0.00 | 0.00 | 0.00 | 28 | 1020.3 |
| 20260506171216 | 70 | 245 | 2.0 | 13.0 | 0.00 | 0.00 | 0.00 | 28 | 1020.5 |
| 20260506170713 | 70 | 264 | 5.0 | 9.0 | 0.00 | 0.00 | 0.00 | 29 | 1020.3 |
| 20260506170210 | 70 | 225 | 9.0 | 11.0 | 0.00 | 0.00 | 0.00 | 29 | 1020.3 |
| 20260506165708 | 70 | 227 | 6.0 | 12.0 | 0.00 | 0.00 | 0.00 | 29 | 1020.3 |
| 20260506165205 | 69 | 259 | 10.0 | 12.0 | 0.00 | 0.00 | 0.00 | 30 | 1020.4 |
| 20260506164702 | 69 | 228 | 5.0 | 13.0 | 0.00 | 0.00 | 0.00 | 29 | 1020.2 |
| 20260506164159 | 68 | 239 | 5.0 | 8.0 | 0.00 | 0.00 | 0.00 | 31 | 1020.4 |
| 20260506163655 | 68 | 169 | 2.0 | 11.0 | 0.00 | 0.00 | 0.00 | 30 | 1020.3 |
| 20260506163150 | 68 | 185 | 6.0 | 9.0 | 0.00 | 0.00 | 0.00 | 31 | 1020.2 |
| 20260506162647 | 68 | 203 | 6.0 | 7.0 | 0.00 | 0.00 | 0.00 | 31 | 1020.5 |
| 20260506162144 | 68 | 166 | 6.0 | 11.0 | 0.00 | 0.00 | 0.00 | 31 | 1019.9 |
| 20260506161641 | 68 | 167 | 3.0 | 10.0 | 0.00 | 0.00 | 0.00 | 31 | 1020.3 |
| 20260506161138 | 67 | 241 | 8.0 | 9.0 | 0.00 | 0.00 | 0.00 | 32 | 1020.2 |
| 20260506160636 | 67 | 198 | 3.0 | 10.0 | 0.00 | 0.00 | 0.00 | 32 | 1020.1 |
| 20260506160132 | 67 | 195 | 2.0 | 7.0 | 0.00 | 0.00 | 0.00 | 32 | 1020.2 |
| 20260506155631 | 66 | 172 | 5.0 | 9.0 | 0.00 | 0.00 | 0.00 | 32 | 1020.1 |
| 20260506155128 | 65 | 122 | 3.0 | 7.0 | 0.00 | 0.00 | 0.00 | 34 | 1020.2 |
| 20260506153230 | 65 | 206 | 4.0 | 6.0 | 0.00 | 0.00 | 0.00 | 34 | 1020.2 |
| 20260506152727 | 65 | 129 | 6.0 | 8.0 | 0.00 | 0.00 | 0.00 | 34 | 1020.3 |
| 20260506152225 | 64 | 146 | 0.0 | 6.0 | 0.00 | 0.00 | 0.00 | 36 | 1020.1 |
| 20260506151724 | 64 | 255 | 2.0 | 6.0 | 0.00 | 0.00 | 0.00 | 36 | 1019.9 |
| 20260506151220 | 63 | 202 | 5.0 | 8.0 | 0.00 | 0.00 | 0.00 | 36 | 1019.9 |
| 20260506150716 | 63 | 183 | 3.0 | 7.0 | 0.00 | 0.00 | 0.00 | 36 | 1019.8 |
| 20260506150213 | 63 | 140 | 5.0 | 6.0 | 0.00 | 0.00 | 0.00 | 36 | 1020.1 |
| 20260506145710 | 62 | 192 | 3.0 | 7.0 | 0.00 | 0.00 | 0.00 | 37 | 1020.2 |
| 20260506145207 | 62 | 178 | 6.0 | 8.0 | 0.00 | 0.00 | 0.00 | 37 | 1019.9 |
| 20260506144705 | 62 | 239 | 2.0 | 6.0 | 0.00 | 0.00 | 0.00 | 37 | 1020.1 |
| 20260506144201 | 62 | 200 | 5.0 | 6.0 | 0.00 | 0.00 | 0.00 | 37 | 1020.1 |
| 20260506143659 | 61 | 173 | 3.0 | 7.0 | 0.00 | 0.00 | 0.00 | 38 | 1019.6 |
| 20260506143157 | 61 | 242 | 4.0 | 6.0 | 0.00 | 0.00 | 0.00 | 38 | 1020.1 |
| 20260506142655 | 61 | 252 | 2.0 | 4.0 | 0.00 | 0.00 | 0.00 | 39 | 1019.7 |
| 20260506142152 | 60 | 165 | 3.0 | 7.0 | 0.00 | 0.00 | 0.00 | 39 | 1019.7 |
| 20260506141650 | 60 | 187 | 2.0 | 3.0 | 0.00 | 0.00 | 0.00 | 40 | 1019.9 |
| 20260506141148 | 60 | 138 | 3.0 | 5.0 | 0.00 | 0.00 | 0.00 | 39 | 1019.6 |
| 20260506140645 | 61 | 151 | 3.0 | 5.0 | 0.00 | 0.00 | 0.00 | 39 | 1019.7 |
| 20260506140142 | 63 | 107 | 3.0 | 5.0 | 0.00 | 0.00 | 0.00 | 37 | 1019.5 |
| 20260506135639 | 62 | 114 | 0.0 | 4.0 | 0.00 | 0.00 | 0.00 | 38 | 1019.5 |
| 20260506135135 | 61 | 119 | 0.0 | 4.0 | 0.00 | 0.00 | 0.00 | 39 | 1019.5 |
| 20260506134632 | 60 | 112 | 3.0 | 4.0 | 0.00 | 0.00 | 0.00 | 39 | 1019.2 |
| 20260506134128 | 60 | 150 | 2.0 | 5.0 | 0.00 | 0.00 | 0.00 | 40 | 1019.4 |
| 20260506133625 | 59 | 131 | 2.0 | 3.0 | 0.00 | 0.00 | 0.00 | 41 | 1019.2 |
| 20260506133122 | 58 | 116 | 3.0 | 3.0 | 0.00 | 0.00 | 0.00 | 42 | 1019.2 |
| 20260506132620 | 56 | 109 | 2.0 | 2.0 | 0.00 | 0.00 | 0.00 | 46 | 1019.2 |
| 20260506132116 | 53 | 109 | 2.0 | 3.0 | 0.00 | 0.00 | 0.00 | 48 | 1019.2 |
| 20260506131614 | 52 | 112 | 2.0 | 2.0 | 0.00 | 0.00 | 0.00 | 51 | 1019.1 |
| 20260506131110 | 51 | 106 | 2.0 | 2.0 | 0.00 | 0.00 | 0.00 | 52 | 1019.2 |
| 20260506130607 | 50 | 90 | 1.0 | 3.0 | 0.00 | 0.00 | 0.00 | 52 | 1019.0 |
| 20260506130105 | 50 | 95 | 2.0 | 2.0 | 0.00 | 0.00 | 0.00 | 52 | 1019.0 |
| 20260506125603 | 50 | 121 | 2.0 | 3.0 | 0.00 | 0.00 | 0.00 | 53 | 1018.8 |
| 20260506125100 | 49 | 96 | 2.0 | 2.0 | 0.00 | 0.00 | 0.00 | 54 | 1018.7 |
| 20260506124558 | 49 | 117 | 1.0 | 1.0 | 0.00 | 0.00 | 0.00 | 53 | 1018.8 |
| 20260506124055 | 50 | 106 | 0.0 | 0.0 | 0.00 | 0.00 | 0.00 | 52 | 1018.6 |
| 20260506123553 | 50 | 90 | 0.0 | 0.0 | 0.00 | 0.00 | 0.00 | 50 | 1018.5 |
| 20260506123051 | 50 | 126 | 0.0 | 1.0 | 0.00 | 0.00 | 0.00 | 50 | 1018.5 |
| 20260506122547 | 51 | 101 | 2.0 | 2.0 | 0.00 | 0.00 | 0.00 | 50 | 1018.6 |
| 20260506122046 | 52 | 114 | 0.0 | 2.0 | 0.00 | 0.00 | 0.00 | 49 | 1018.5 |
| 20260506121543 | 52 | 126 | 1.0 | 3.0 | 0.00 | 0.00 | 0.00 | 49 | 1018.6 |
| 20260506121039 | 52 | 238 | 3.0 | 3.0 | 0.00 | 0.00 | 0.00 | 48 | 1018.4 |
| 20260506120537 | 53 | 270 | 1.0 | 2.0 | 0.00 | 0.00 | 0.00 | 48 | 1018.5 |
| 20260506120034 | 53 | 209 | 0.0 | 2.0 | 0.00 | 0.00 | 0.00 | 48 | 1018.5 |
| 20260506115532 | 53 | 270 | 2.0 | 3.0 | 0.00 | 0.00 | 0.00 | 48 | 1018.5 |
| 20260506115030 | 53 | 247 | 3.0 | 4.0 | 0.00 | 0.00 | 0.00 | 47 | 1018.2 |
| 20260506114527 | 53 | 270 | 2.0 | 3.0 | 0.00 | 0.00 | 0.00 | 48 | 1018.4 |
| 20260506114026 | 53 | 255 | 3.0 | 6.0 | 0.00 | 0.00 | 0.00 | 47 | 1018.4 |
| 20260506113523 | 53 | 293 | 3.0 | 3.0 | 0.00 | 0.00 | 0.00 | 47 | 1018.5 |
| 20260506113020 | 53 | 243 | 3.0 | 4.0 | 0.00 | 0.00 | 0.00 | 47 | 1018.5 |
| 20260506112517 | 53 | 252 | 0.0 | 5.0 | 0.00 | 0.00 | 0.00 | 47 | 1018.5 |
| 20260506112014 | 53 | 227 | 3.0 | 5.0 | 0.00 | 0.00 | 0.00 | 47 | 1018.5 |
| 20260506111512 | 53 | 232 | 3.0 | 5.0 | 0.00 | 0.00 | 0.00 | 47 | 1018.4 |
| 20260506111009 | 53 | 247 | 3.0 | 6.0 | 0.00 | 0.00 | 0.00 | 47 | 1018.3 |
| 20260506110507 | 53 | 278 | 1.0 | 6.0 | 0.00 | 0.00 | 0.00 | 47 | 1018.2 |
| 20260506110004 | 53 | 251 | 3.0 | 6.0 | 0.00 | 0.00 | 0.00 | 47 | 1018.1 |
| 20260506105459 | 53 | 246 | 3.0 | 5.0 | 0.00 | 0.00 | 0.00 | 47 | 1018.2 |
| 20260506104957 | 53 | 254 | 2.0 | 5.0 | 0.00 | 0.00 | 0.00 | 47 | 1018.1 |
| 20260506104455 | 53 | 240 | 3.0 | 5.0 | 0.00 | 0.00 | 0.00 | 47 | 1018.1 |
| 20260506103953 | 53 | 219 | 5.0 | 7.0 | 0.00 | 0.00 | 0.00 | 47 | 1018.0 |
| 20260506103450 | 53 | 240 | 3.0 | 4.0 | 0.00 | 0.00 | 0.00 | 47 | 1018.0 |
| 20260506102946 | 53 | 232 | 2.0 | 3.0 | 0.00 | 0.00 | 0.00 | 47 | 1018.2 |
| 20260506102445 | 53 | 249 | 0.0 | 3.0 | 0.00 | 0.00 | 0.00 | 47 | 1018.1 |
| 20260506101942 | 54 | 260 | 0.0 | 4.0 | 0.00 | 0.00 | 0.00 | 47 | 1018.0 |
| 20260506101438 | 54 | 265 | 2.0 | 3.0 | 0.00 | 0.00 | 0.00 | 46 | 1017.8 |
| 20260506100935 | 54 | 180 | 0.0 | 4.0 | 0.00 | 0.00 | 0.00 | 46 | 1017.8 |
| 20260506100434 | 54 | 264 | 2.0 | 5.0 | 0.00 | 0.00 | 0.00 | 46 | 1018.0 |
| 20260506095931 | 54 | 232 | 2.0 | 5.0 | 0.00 | 0.00 | 0.00 | 47 | 1017.8 |
| 20260506095430 | 54 | 231 | 2.0 | 5.0 | 0.00 | 0.00 | 0.00 | 46 | 1017.8 |
| 20260506094925 | 54 | 221 | 0.0 | 4.0 | 0.00 | 0.00 | 0.00 | 46 | 1017.7 |
| 20260506094424 | 54 | 201 | 3.0 | 3.0 | 0.00 | 0.00 | 0.00 | 46 | 1017.7 |
| 20260506093921 | 54 | 221 | 2.0 | 3.0 | 0.00 | 0.00 | 0.00 | 46 | 1018.0 |
| 20260506093419 | 54 | 234 | 3.0 | 4.0 | 0.00 | 0.00 | 0.00 | 46 | 1017.5 |
| 20260506092917 | 55 | 214 | 4.0 | 4.0 | 0.00 | 0.00 | 0.00 | 46 | 1017.7 |
| 20260506092415 | 55 | 214 | 2.0 | 4.0 | 0.00 | 0.00 | 0.00 | 45 | 1017.7 |
| 20260506091911 | 55 | 247 | 2.0 | 5.0 | 0.00 | 0.00 | 0.00 | 45 | 1017.5 |
| 20260506091409 | 55 | 205 | 3.0 | 5.0 | 0.00 | 0.00 | 0.00 | 45 | 1017.7 |
| 20260506090906 | 55 | 229 | 2.0 | 5.0 | 0.00 | 0.00 | 0.00 | 45 | 1017.5 |
| 20260506090404 | 55 | 239 | 2.0 | 5.0 | 0.00 | 0.00 | 0.00 | 45 | 1017.5 |
| 20260506085900 | 55 | 246 | 6.0 | 6.0 | 0.00 | 0.00 | 0.00 | 45 | 1017.6 |
| 20260506085357 | 55 | 260 | 3.0 | 4.0 | 0.00 | 0.00 | 0.00 | 45 | 1017.3 |
| 20260506084853 | 55 | 248 | 4.0 | 7.0 | 0.00 | 0.00 | 0.00 | 45 | 1017.4 |
| 20260506084350 | 55 | 212 | 1.0 | 5.0 | 0.00 | 0.00 | 0.00 | 45 | 1017.6 |
| 20260506083846 | 55 | 265 | 2.0 | 4.0 | 0.00 | 0.00 | 0.00 | 45 | 1017.7 |
| 20260506083344 | 55 | 251 | 3.0 | 5.0 | 0.00 | 0.00 | 0.00 | 45 | 1017.7 |
| 20260506082841 | 55 | 239 | 2.0 | 6.0 | 0.00 | 0.00 | 0.00 | 45 | 1017.6 |
| 20260506082338 | 54 | 220 | 2.0 | 5.0 | 0.00 | 0.00 | 0.00 | 45 | 1017.4 |
| 20260506081833 | 54 | 270 | 2.0 | 3.0 | 0.00 | 0.00 | 0.00 | 45 | 1017.6 |
| 20260506081331 | 53 | 233 | 3.0 | 3.0 | 0.00 | 0.00 | 0.00 | 45 | 1017.5 |
| 20260506080829 | 53 | 198 | 0.0 | 3.0 | 0.00 | 0.00 | 0.00 | 45 | 1017.6 |
| 20260506080325 | 53 | 254 | 1.0 | 2.0 | 0.00 | 0.00 | 0.00 | 44 | 1017.6 |
| 20260506073310 | 54 | 203 | 0.0 | 2.0 | 0.00 | 0.00 | 0.00 | 43 | 1017.6 |
| 20260506072806 | 54 | 203 | 0.0 | 3.0 | 0.00 | 0.00 | 0.00 | 43 | 1017.4 |
| 20260506072305 | 54 | 270 | 0.0 | 2.0 | 0.00 | 0.00 | 0.00 | 42 | 1017.6 |
| 20260506071801 | 54 | 264 | 1.0 | 2.0 | 0.00 | 0.00 | 0.00 | 42 | 1017.4 |
| 20260506071259 | 54 | 254 | 1.0 | 3.0 | 0.00 | 0.00 | 0.00 | 42 | 1017.5 |
| 20260506070756 | 54 | 236 | 2.0 | 3.0 | 0.00 | 0.00 | 0.00 | 42 | 1017.3 |
| 20260506070253 | 55 | 249 | 0.0 | 3.0 | 0.00 | 0.00 | 0.00 | 40 | 1017.5 |
| 20260506062230 | 55 | 255 | 0.0 | 2.0 | 0.00 | 0.00 | 0.00 | 38 | 1017.2 |
| 20260506061725 | 54 | 261 | 0.0 | 2.0 | 0.00 | 0.00 | 0.00 | 38 | 1017.3 |
| 20260506061223 | 54 | 264 | 1.0 | 1.0 | 0.00 | 0.00 | 0.00 | 38 | 1017.1 |
| 20260506060722 | 54 | 195 | 0.0 | 0.0 | 0.00 | 0.00 | 0.00 | 38 | 1017.2 |
| 20260506060218 | 54 | 291 | 0.0 | 2.0 | 0.00 | 0.00 | 0.00 | 38 | 1017.1 |
| 20260506051150 | 55 | 261 | 0.0 | 2.0 | 0.00 | 0.00 | 0.00 | 36 | 1016.7 |
| 20260506050649 | 55 | 253 | 2.0 | 2.0 | 0.00 | 0.00 | 0.00 | 36 | 1016.7 |
| 20260506050145 | 55 | 258 | 0.0 | 2.0 | 0.00 | 0.00 | 0.00 | 36 | 1016.5 |
| 20260506044636 | 56 | 279 | 0.0 | 0.0 | 0.00 | 0.00 | 0.00 | 34 | 1016.3 |
| 20260506044133 | 57 | 261 | 0.0 | 0.0 | 0.00 | 0.00 | 0.00 | 33 | 1016.3 |
| 20260506043630 | 57 | 261 | 0.0 | 0.0 | 0.00 | 0.00 | 0.00 | 33 | 1016.5 |
| 20260506043128 | 58 | 243 | 0.0 | 1.0 | 0.00 | 0.00 | 0.00 | 33 | 1016.2 |
| 20260506042627 | 58 | 261 | 0.0 | 2.0 | 0.00 | 0.00 | 0.00 | 33 | 1016.5 |
| 20260506042125 | 58 | 191 | 0.0 | 1.0 | 0.00 | 0.00 | 0.00 | 33 | 1016.1 |
| 20260506041623 | 59 | 228 | 2.0 | 3.0 | 0.00 | 0.00 | 0.00 | 32 | 1016.4 |
| 20260506041119 | 59 | 254 | 2.0 | 3.0 | 0.00 | 0.00 | 0.00 | 32 | 1016.2 |
| 20260506040618 | 59 | 253 | 2.0 | 4.0 | 0.00 | 0.00 | 0.00 | 32 | 1016.1 |
| 20260506040114 | 59 | 238 | 3.0 | 4.0 | 0.00 | 0.00 | 0.00 | 32 | 1016.2 |
| 20260506035611 | 60 | 232 | 2.0 | 2.0 | 0.00 | 0.00 | 0.00 | 31 | 1016.0 |
| 20260506035107 | 60 | 270 | 1.0 | 3.0 | 0.00 | 0.00 | 0.00 | 31 | 1015.9 |
| 20260506034605 | 60 | 229 | 2.0 | 3.0 | 0.00 | 0.00 | 0.00 | 31 | 1015.6 |
| 20260506034101 | 60 | 270 | 2.0 | 3.0 | 0.00 | 0.00 | 0.00 | 31 | 1015.7 |
| 20260506033559 | 60 | 201 | 0.0 | 5.0 | 0.00 | 0.00 | 0.00 | 31 | 1015.5 |
| 20260506033055 | 60 | 180 | 1.0 | 3.0 | 0.00 | 0.00 | 0.00 | 31 | 1015.5 |
| 20260506032553 | 60 | 225 | 2.0 | 3.0 | 0.00 | 0.00 | 0.00 | 31 | 1015.4 |
| 20260506032050 | 60 | 229 | 0.0 | 2.0 | 0.00 | 0.00 | 0.00 | 31 | 1015.4 |
| 20260506031547 | 60 | 209 | 1.0 | 3.0 | 0.00 | 0.00 | 0.00 | 30 | 1015.5 |
| 20260506031044 | 60 | 196 | 2.0 | 3.0 | 0.00 | 0.00 | 0.00 | 30 | 1015.5 |
| 20260506030542 | 61 | 208 | 2.0 | 3.0 | 0.00 | 0.00 | 0.00 | 30 | 1015.3 |
| 20260506030039 | 61 | 251 | 1.0 | 3.0 | 0.00 | 0.00 | 0.00 | 30 | 1015.0 |
| 20260506025536 | 61 | 262 | 1.0 | 3.0 | 0.00 | 0.00 | 0.00 | 30 | 1015.0 |
| 20260506025032 | 61 | 246 | 0.0 | 3.0 | 0.00 | 0.00 | 0.00 | 30 | 1014.8 |
| 20260506024529 | 62 | 213 | 2.0 | 3.0 | 0.00 | 0.00 | 0.00 | 30 | 1014.9 |
| 20260506024026 | 62 | 197 | 3.0 | 5.0 | 0.00 | 0.00 | 0.00 | 30 | 1014.9 |
| 20260506023521 | 62 | 264 | 1.0 | 3.0 | 0.00 | 0.00 | 0.00 | 30 | 1014.8 |
| 20260506023020 | 62 | 212 | 2.0 | 5.0 | 0.00 | 0.00 | 0.00 | 30 | 1014.5 |
| 20260506022517 | 62 | 221 | 2.0 | 4.0 | 0.00 | 0.00 | 0.00 | 30 | 1014.5 |
| 20260506022014 | 62 | 247 | 4.0 | 6.0 | 0.00 | 0.00 | 0.00 | 29 | 1014.5 |
| 20260506021511 | 63 | 197 | 3.0 | 7.0 | 0.00 | 0.00 | 0.00 | 29 | 1014.6 |
| 20260506021009 | 63 | 225 | 5.0 | 6.0 | 0.00 | 0.00 | 0.00 | 29 | 1014.6 |
| 20260506020506 | 63 | 250 | 2.0 | 11.0 | 0.00 | 0.00 | 0.00 | 29 | 1014.5 |
| 20260506020003 | 63 | 215 | 3.0 | 6.0 | 0.00 | 0.00 | 0.00 | 29 | 1014.1 |
| 20260506015500 | 64 | 225 | 2.0 | 7.0 | 0.00 | 0.00 | 0.00 | 29 | 1014.1 |
| 20260506014957 | 64 | 229 | 3.0 | 8.0 | 0.00 | 0.00 | 0.00 | 28 | 1014.3 |
| 20260506014454 | 65 | 176 | 2.0 | 7.0 | 0.00 | 0.00 | 0.00 | 28 | 1014.1 |
| 20260506013950 | 66 | 239 | 2.0 | 7.0 | 0.00 | 0.00 | 0.00 | 27 | 1014.2 |
| 20260506013449 | 67 | 247 | 2.0 | 9.0 | 0.00 | 0.00 | 0.00 | 27 | 1014.1 |
| 20260506012944 | 67 | 183 | 3.0 | 11.0 | 0.00 | 0.00 | 0.00 | 26 | 1013.9 |
| 20260506012441 | 68 | 169 | 5.0 | 13.0 | 0.00 | 0.00 | 0.00 | 26 | 1014.2 |
| 20260506011938 | 68 | 221 | 2.0 | 8.0 | 0.00 | 0.00 | 0.00 | 27 | 1014.0 |
| 20260506011436 | 67 | 181 | 5.0 | 11.0 | 0.00 | 0.00 | 0.00 | 27 | 1013.8 |
| 20260506010932 | 67 | 206 | 2.0 | 9.0 | 0.00 | 0.00 | 0.00 | 27 | 1013.8 |
| 20260506010431 | 67 | 231 | 3.0 | 11.0 | 0.00 | 0.00 | 0.00 | 27 | 1013.8 |
| 20260506005927 | 67 | 237 | 4.0 | 7.0 | 0.00 | 0.00 | 0.00 | 27 | 1013.5 |
| 20260506005425 | 67 | 244 | 0.0 | 7.0 | 0.00 | 0.00 | 0.00 | 27 | 1013.7 |
| 20260506004920 | 67 | 267 | 4.0 | 11.0 | 0.00 | 0.00 | 0.00 | 27 | 1013.7 |
| 20260506004418 | 67 | 252 | 6.0 | 13.0 | 0.00 | 0.00 | 0.00 | 27 | 1013.4 |